Regional Weather Roundup
Issued by NWS

Home | Current Version | Previous Version | Graphics & Text | Print | Product List | Glossary On
Versions: 1 2 3 4 5 6 7 8 9 10 11 12 13 14 15 16 17 18 19 20 21 22 23 24 25 26 27 28
000
ASUS45 KCYS 212010
RWRWY

WYOMING REGIONAL WEATHER ROUNDUP
NATIONAL WEATHER SERVICE CHEYENNE WY
100 PM MST TUE NOV 21 2017

NOTE:  "FAIR" INDICATES FEW OR NO CLOUDS BELOW 12,000 FEET
WITH NO SIGNIFICANT WEATHER AND/OR OBSTRUCTIONS TO VISIBILITY.

WYZ001-212100-
YELLOWSTONE NATIONAL PARK

CITY           SKY/WX    TMP DP  RH WIND       PRES   REMARKS
LK YELLOWSTONE   N/A     35  30  82 VRB5      30.35R WCI  31
W YELLOWSTONE  NOT AVBL

$$
WYZ002>013-054>058-071-098>099-212100-
NORTHERN WYOMING

CITY           SKY/WX    TMP DP  RH WIND       PRES   REMARKS
JACKSON        FAIR      42  35  76 VRB6      30.32S
CODY           FAIR      47  31  53 SE8       30.22S
GREYBULL       FAIR      42  30  62 S8        30.25F
WORLAND        FAIR      43  31  62 SE6       30.24F
SHERIDAN       FAIR      40  33  76 NW3       30.23F
BUFFALO        FAIR      40  27  59 SE12      30.21F WCI  33
GILLETTE       FAIR      40  26  57 SW10      30.23F WCI  33
HULETT         FAIR      32  27  80 SW10      30.26F WCI  24
NEWCASTLE      FAIR      34  21  60 NW8       30.31R WCI  27

$$
WYZ014>020-022>026-101>103-212100-
CENTRAL WYOMING

CITY           SKY/WX    TMP DP  RH WIND       PRES   REMARKS
BIG PINEY      FAIR      44  35  70 CALM      30.32F
PINEDALE       FAIR      41  32  70 NW7       30.33S
DUBOIS         FAIR      43  28  56 NW14      30.25S
LANDER         FAIR      48  32  53 CALM      30.22F
RIVERTON       FAIR      47  33  58 CALM      30.24F
CASPER         FAIR      43  31  62 S10       30.25F
DOUGLAS        FAIR      42  29  59 VRB5      30.27F

$$
WYZ021-027>030-104>119-212100-
SOUTHERN WYOMING

CITY           SKY/WX    TMP DP  RH WIND       PRES   REMARKS
EVANSTON       PTSUNNY   46  38  73 SW12      30.38S
KEMMERER       CLOUDY    41  36  81 W10       30.36F
FORT BRIDGER   CLOUDY    46  39  76 W8        30.39S
ROCK SPRINGS   FAIR      47  35  63 W18G29    30.32R
DIXON          FAIR      47  35  63 SW6       30.34F
RAWLINS        PTSUNNY   46  33  60 W18G25    30.28F
SARATOGA       CLOUDY    41  34  75 W14G20    30.31S
LARAMIE        LGT RAIN  38  34  85 NE6       30.27S WCI  33
CHEYENNE       CLOUDY    43  32  65 VRB3      30.27F
TORRINGTON     FAIR      45  26  47 VRB3      30.28F
PINE BLUFFS    FAIR      43  28  56 NW14      30.29F

$$




USA.gov is the U.S. government's official web portal to all federal, state and local government web resources and services.